Regional Weather Roundup
Issued by NWS New Orleans/Baton Rouge, LA

Home | Current Version | Previous Version | Text Only | Print | Product List | Glossary On
Versions: 1 2 3 4 5 6 7 8 9 10 11 12 13 14 15 16 17 18 19 20 21 22 23 24 25 26 27 28
000
ASUS44 KLIX 160213
RWRLIX
NEW ORLEANS REGIONAL WEATHER ROUNDUP
NATIONAL WEATHER SERVICE NEW ORLEANS LA
800 PM CST FRI DEC 15 2017

NOTE: "FAIR" INDICATES FEW OR NO CLOUDS BELOW 12,000 FEET WITH NO
      SIGNIFICANT WEATHER AND/OR OBSTRUCTIONS TO VISIBILITY.
      SKY/WX - SKY CONDITION AND SIGNIFICANT WEATHER.
      TMP - AIR TEMPERATURE.     DP    - DEWPOINT TEMPERATURE.
      RH  - RELATIVE HUMIDITY.   PRES  - PRESSURE.
      HI  - HEAT INDEX.          WCI   - WIND CHILL INDEX.

*  THESE STATIONS ARE NOT NWS OR FAA STATIONS AND ARE NOT UNDER
   NWS QUALITY CONTROL.

LAZ038-040-048-061>063-065>067-069-160300-
SOUTHEAST LOUISIANA

CITY           SKY/WX    TMP DP  RH WIND       PRES   REMARKS
N.O. INTL ARPT CLOUDY    48  36  63 N7        30.25R
N.O. LAKEFRONT CLOUDY    48  36  63 NE12      30.25R
N.O. DOWNTOWN* CLOUDY    47  35  63 N7        30.25R
RESERVE*       CLOUDY    48  35  60 N5        30.27R
SLIDELL        LGT RAIN  44  38  79 CALM      30.24R
BATON ROUGE    CLOUDY    45  33  63 CALM      30.27R
BOOTHVILLE     CLOUDY    51  40  65 N10       30.23F
BELLE CHASSE   CLOUDY    47  39  74 N6        30.24R
BOGALUSA*        N/A     44  35  72 MISG      30.26R
GALLIANO*      CLOUDY    47  37  68 N6        30.24R
NEW ROADS*       N/A     43  36  75 N3        30.28R
GONZALES*        N/A     46  33  61 CALM      30.26R
HAMMOND*       CLOUDY    43  34  70 CALM      30.26R
HOUMA*         CLOUDY    46  40  82 N5        30.24S
PORT FOURCHON* NOT AVBL

$$

MSZ070-080>082-160300-
SOUTHERN MISSISSIPPI

CITY           SKY/WX    TMP DP  RH WIND       PRES   REMARKS
MCCOMB         CLOUDY    42  33  70 N5        30.25R
GULFPORT       CLOUDY    45  34  65 N7        30.24S
BILOXI         CLOUDY    44  35  68 N7        30.24R
PASCAGOULA     PTCLDY    45  33  63 N7        30.24R

$$

COASTAL OBSERVATIONS
LAKE AND NEARSHORE STATIONS

STATION/POSITION TIME  TEMP    WIND        PRES    WAVE
                       AIR SEA DIR/SP/G            HT/PER
                 (UTC) (F)     (DEG/KT/KT) (MB)    (FT/S)
PASCAGOULA       0148   45      10/  9/ 13 1023.4
WAVELAND YACHT   0148           20/  9/ 12   N/A
GRAND ISLE       0148   49 59   40/ 11/ 15 1023.6
SOUTHWEST PASS   0148   51 58   20/ 14/ 17 1023.4
NEW CANAL        0148   48 54   30/ 12/ 14 1023.8
SHELL BEACH      0148          360/ 14/ 16   N/A

OFFSHORE STATIONS

STATION/POSITION TIME  TEMP    WIND        PRES    WAVE
                       AIR SEA DIR/SP/G            HT/PER
                 (UTC) (F)     (DEG/KT/KT) (MB)    (FT/S)
64 S DAUPHIN ISL 0150   58 71   20/ 12/ 16 1023.0    3/ 5

$$





USA.gov is the U.S. government's official web portal to all federal, state and local government web resources and services.